| time (UTC) | temp F | wind direction | speed MPH | gust MPH | rain 1hr in | rain 24hr in | rain mn in | humidity % | barometer mb |
| 20260505053217 | 71 | 115 | 5.0 | 0.0 | 0.00 | 0.00 | 0.00 | 88 | 1012.5 |
| 20260505052717 | 71 | 108 | 7.0 | 0.0 | 0.00 | 0.00 | 0.00 | 88 | 1012.5 |
| 20260505052216 | 71 | 63 | 7.0 | 0.0 | 0.00 | 0.00 | 0.00 | 88 | 1012.2 |
| 20260505051719 | 71 | 81 | 6.0 | 0.0 | 0.00 | 0.00 | 0.00 | 88 | 1012.5 |
| 20260505051219 | 71 | 144 | 6.0 | 0.0 | 0.00 | 0.00 | 0.00 | 87 | 1012.2 |
| 20260505050718 | 71 | 175 | 5.0 | 0.0 | 0.00 | 0.00 | 0.00 | 87 | 1012.5 |
| 20260505050217 | 71 | 120 | 5.0 | 0.0 | 0.00 | 0.00 | 0.00 | 87 | 1012.2 |
| 20260505041718 | 72 | 121 | 7.0 | 0.0 | 0.00 | 0.00 | 0.00 | 84 | 1012.5 |
| 20260505041218 | 72 | 142 | 5.0 | 0.0 | 0.00 | 0.00 | 0.00 | 84 | 1012.5 |
| 20260505040719 | 72 | 192 | 5.0 | 0.0 | 0.00 | 0.00 | 0.00 | 83 | 1012.5 |
| 20260505040214 | 72 | 72 | 5.0 | 0.0 | 0.00 | 0.00 | 0.00 | 83 | 1012.5 |
| 20260505035716 | 72 | 141 | 4.0 | 0.0 | 0.00 | 0.00 | 0.00 | 83 | 1012.5 |
| 20260505035215 | 72 | 156 | 3.0 | 0.0 | 0.00 | 0.00 | 0.00 | 82 | 1012.2 |
| 20260505034714 | 72 | 45 | 4.0 | 0.0 | 0.00 | 0.00 | 0.00 | 82 | 1012.2 |
| 20260505034216 | 72 | 45 | 4.0 | 0.0 | 0.00 | 0.00 | 0.00 | 81 | 1012.2 |
| 20260505033715 | 72 | 236 | 3.0 | 0.0 | 0.00 | 0.00 | 0.00 | 81 | 1012.2 |
| 20260505033218 | 72 | 299 | 4.0 | 0.0 | 0.00 | 0.00 | 0.00 | 81 | 1012.2 |
| 20260505032716 | 72 | 152 | 3.0 | 0.0 | 0.00 | 0.00 | 0.00 | 81 | 1012.2 |
| 20260505032215 | 72 | 190 | 3.0 | 0.0 | 0.00 | 0.00 | 0.00 | 81 | 1012.2 |
| 20260505031716 | 72 | 217 | 3.0 | 0.0 | 0.00 | 0.00 | 0.00 | 81 | 1012.2 |
| 20260505031214 | 72 | 193 | 4.0 | 0.0 | 0.00 | 0.00 | 0.00 | 81 | 1012.2 |
| 20260505030713 | 72 | 213 | 3.0 | 0.0 | 0.00 | 0.00 | 0.00 | 80 | 1012.2 |
| 20260505030215 | 72 | 165 | 3.0 | 0.0 | 0.00 | 0.00 | 0.00 | 80 | 1012.2 |
| 20260505025715 | 72 | 192 | 3.0 | 0.0 | 0.00 | 0.00 | 0.00 | 80 | 1012.2 |
| 20260505025213 | 72 | 189 | 2.0 | 0.0 | 0.00 | 0.00 | 0.00 | 79 | 1012.2 |
| 20260505024716 | 72 | 183 | 3.0 | 0.0 | 0.00 | 0.00 | 0.00 | 79 | 1012.2 |
| 20260505024213 | 72 | 195 | 1.0 | 0.0 | 0.00 | 0.00 | 0.00 | 79 | 1012.2 |
| 20260505023714 | 72 | 210 | 2.0 | 0.0 | 0.00 | 0.00 | 0.00 | 79 | 1012.2 |
| 20260505023212 | 72 | 198 | 2.0 | 0.0 | 0.00 | 0.00 | 0.00 | 79 | 1012.2 |
| 20260505022714 | 72 | 181 | 2.0 | 0.0 | 0.00 | 0.00 | 0.00 | 78 | 1012.2 |
| 20260505022217 | 72 | 187 | 2.0 | 0.0 | 0.00 | 0.00 | 0.00 | 77 | 1012.2 |
| 20260505021713 | 72 | 208 | 2.0 | 0.0 | 0.00 | 0.00 | 0.00 | 77 | 1012.2 |
| 20260505021212 | 73 | 175 | 1.0 | 0.0 | 0.00 | 0.00 | 0.00 | 76 | 1012.2 |
| 20260505020712 | 73 | 171 | 2.0 | 0.0 | 0.00 | 0.00 | 0.00 | 75 | 1011.9 |
| 20260505020214 | 73 | 177 | 2.0 | 0.0 | 0.00 | 0.00 | 0.00 | 75 | 1011.9 |
| 20260505015714 | 74 | 199 | 2.0 | 0.0 | 0.00 | 0.00 | 0.00 | 74 | 1011.9 |
| 20260505015214 | 74 | 168 | 2.0 | 0.0 | 0.00 | 0.00 | 0.00 | 74 | 1011.9 |
| 20260505014712 | 74 | 204 | 3.0 | 0.0 | 0.00 | 0.00 | 0.00 | 73 | 1011.9 |
| 20260505014212 | 75 | 228 | 2.0 | 0.0 | 0.00 | 0.00 | 0.00 | 72 | 1011.9 |
| 20260505013712 | 75 | 164 | 3.0 | 0.0 | 0.00 | 0.00 | 0.00 | 72 | 1011.9 |
| 20260505013213 | 75 | 195 | 2.0 | 0.0 | 0.00 | 0.00 | 0.00 | 71 | 1011.9 |
| 20260505012713 | 75 | 163 | 3.0 | 0.0 | 0.00 | 0.00 | 0.00 | 71 | 1011.9 |
| 20260505012212 | 75 | 160 | 3.0 | 0.0 | 0.00 | 0.00 | 0.00 | 71 | 1011.9 |
| 20260505011712 | 76 | 38 | 5.0 | 0.0 | 0.00 | 0.00 | 0.00 | 71 | 1011.9 |
| 20260505011214 | 76 | 206 | 3.0 | 0.0 | 0.00 | 0.00 | 0.00 | 71 | 1011.9 |
| 20260505010712 | 76 | 203 | 3.0 | 0.0 | 0.00 | 0.00 | 0.00 | 70 | 1011.9 |
| 20260505010214 | 76 | 126 | 4.0 | 0.0 | 0.00 | 0.00 | 0.00 | 70 | 1011.9 |
| 20260505005712 | 77 | 132 | 4.0 | 0.0 | 0.00 | 0.00 | 0.00 | 70 | 1011.9 |
| 20260505005212 | 77 | 181 | 3.0 | 0.0 | 0.00 | 0.00 | 0.00 | 69 | 1011.9 |
| 20260505004712 | 77 | 72 | 6.0 | 0.0 | 0.00 | 0.00 | 0.00 | 69 | 1011.9 |
| 20260505004213 | 77 | 170 | 5.0 | 0.0 | 0.00 | 0.00 | 0.00 | 68 | 1011.9 |
| 20260505003714 | 77 | 90 | 5.0 | 0.0 | 0.00 | 0.00 | 0.00 | 68 | 1011.5 |
| 20260505003211 | 78 | 144 | 8.0 | 0.0 | 0.00 | 0.00 | 0.00 | 68 | 1011.5 |
| 20260505002712 | 78 | 73 | 8.0 | 0.0 | 0.00 | 0.00 | 0.00 | 67 | 1011.5 |
| 20260505002210 | 78 | 138 | 7.0 | 0.0 | 0.00 | 0.00 | 0.00 | 67 | 1011.5 |
| 20260505001714 | 78 | 132 | 7.0 | 0.0 | 0.00 | 0.00 | 0.00 | 66 | 1011.5 |
| 20260505001214 | 78 | 87 | 7.0 | 0.0 | 0.00 | 0.00 | 0.00 | 66 | 1011.5 |
| 20260505000715 | 78 | 113 | 6.0 | 0.0 | 0.00 | 0.00 | 0.00 | 67 | 1011.5 |
| 20260505000214 | 78 | 196 | 6.0 | 0.0 | 0.00 | 0.00 | 0.00 | 66 | 1011.5 |
| 20260504235714 | 78 | 83 | 9.0 | 0.0 | 0.00 | 0.00 | 0.00 | 65 | 1011.5 |
| 20260504235212 | 78 | 112 | 6.0 | 0.0 | 0.00 | 0.00 | 0.00 | 65 | 1011.9 |
| 20260504234712 | 79 | 191 | 4.0 | 0.0 | 0.00 | 0.00 | 0.00 | 66 | 1011.9 |
| 20260504234212 | 79 | 195 | 5.0 | 0.0 | 0.00 | 0.00 | 0.00 | 65 | 1011.9 |
| 20260504233712 | 79 | 86 | 7.0 | 0.0 | 0.00 | 0.00 | 0.00 | 64 | 1011.9 |
| 20260504233215 | 80 | 100 | 7.0 | 0.0 | 0.00 | 0.00 | 0.00 | 64 | 1012.2 |
| 20260504232714 | 80 | 145 | 6.0 | 0.0 | 0.00 | 0.00 | 0.00 | 64 | 1012.2 |
| 20260504232215 | 80 | 103 | 8.0 | 0.0 | 0.00 | 0.00 | 0.00 | 64 | 1012.2 |
| 20260504231710 | 80 | 200 | 5.0 | 0.0 | 0.00 | 0.00 | 0.00 | 64 | 1012.2 |
| 20260504231212 | 80 | 61 | 9.0 | 0.0 | 0.00 | 0.00 | 0.00 | 63 | 1012.2 |
| 20260504230711 | 80 | 126 | 6.0 | 0.0 | 0.00 | 0.00 | 0.00 | 63 | 1012.5 |
| 20260504230212 | 80 | 209 | 5.0 | 0.0 | 0.00 | 0.00 | 0.00 | 63 | 1012.5 |
| 20260504225717 | 80 | 39 | 6.0 | 0.0 | 0.00 | 0.00 | 0.00 | 64 | 1012.5 |
| 20260504225212 | 80 | 283 | 6.0 | 0.0 | 0.00 | 0.00 | 0.00 | 65 | 1012.5 |
| 20260504224710 | 80 | 169 | 5.0 | 0.0 | 0.00 | 0.00 | 0.00 | 64 | 1012.9 |
| 20260504224212 | 80 | 195 | 4.0 | 0.0 | 0.00 | 0.00 | 0.00 | 65 | 1012.9 |
| 20260504223712 | 79 | 16 | 5.0 | 0.0 | 0.00 | 0.00 | 0.00 | 65 | 1012.9 |
| 20260504223212 | 79 | 143 | 7.0 | 0.0 | 0.00 | 0.00 | 0.00 | 64 | 1012.9 |
| 20260504222715 | 79 | 288 | 8.0 | 0.0 | 0.00 | 0.00 | 0.00 | 64 | 1012.9 |
| 20260504222213 | 80 | 104 | 7.0 | 0.0 | 0.00 | 0.00 | 0.00 | 63 | 1012.9 |
| 20260504221714 | 80 | 108 | 6.0 | 0.0 | 0.00 | 0.00 | 0.00 | 64 | 1012.9 |
| 20260504221212 | 80 | 112 | 7.0 | 0.0 | 0.00 | 0.00 | 0.00 | 64 | 1012.9 |
| 20260504220711 | 80 | 107 | 4.0 | 0.0 | 0.00 | 0.00 | 0.00 | 63 | 1012.9 |
| 20260504220215 | 80 | 343 | 3.0 | 0.0 | 0.00 | 0.00 | 0.00 | 65 | 1012.9 |
| 20260504215711 | 80 | 186 | 4.0 | 0.0 | 0.00 | 0.00 | 0.00 | 64 | 1012.9 |
| 20260504215210 | 80 | 223 | 3.0 | 0.0 | 0.00 | 0.00 | 0.00 | 63 | 1012.9 |
| 20260504214713 | 80 | 70 | 6.0 | 0.0 | 0.00 | 0.00 | 0.00 | 63 | 1012.9 |
| 20260504214211 | 79 | 104 | 5.0 | 0.0 | 0.00 | 0.00 | 0.00 | 65 | 1012.9 |
| 20260504213714 | 79 | 243 | 6.0 | 0.0 | 0.00 | 0.00 | 0.00 | 65 | 1013.2 |
| 20260504213213 | 79 | 205 | 7.0 | 0.0 | 0.00 | 0.00 | 0.00 | 65 | 1013.2 |
| 20260504212711 | 80 | 22 | 8.0 | 0.0 | 0.00 | 0.00 | 0.00 | 64 | 1013.2 |
| 20260504212214 | 80 | 273 | 6.0 | 0.0 | 0.00 | 0.00 | 0.00 | 64 | 1013.5 |
| 20260504211713 | 80 | 143 | 6.0 | 0.0 | 0.00 | 0.00 | 0.00 | 64 | 1013.5 |
| 20260504211214 | 80 | 136 | 9.0 | 0.0 | 0.00 | 0.00 | 0.00 | 63 | 1013.5 |
| 20260504210713 | 80 | 96 | 5.0 | 0.0 | 0.00 | 0.00 | 0.00 | 64 | 1013.5 |
| 20260504210211 | 79 | 190 | 5.0 | 0.0 | 0.00 | 0.00 | 0.00 | 66 | 1013.9 |
| 20260504205713 | 79 | 75 | 7.0 | 0.0 | 0.00 | 0.00 | 0.00 | 65 | 1013.9 |
| 20260504205212 | 79 | 208 | 6.0 | 0.0 | 0.00 | 0.00 | 0.00 | 65 | 1013.9 |
| 20260504204711 | 79 | 183 | 4.0 | 0.0 | 0.00 | 0.00 | 0.00 | 65 | 1013.9 |
| 20260504204214 | 79 | 107 | 7.0 | 0.0 | 0.00 | 0.00 | 0.00 | 65 | 1014.2 |
| 20260504203710 | 79 | 178 | 6.0 | 0.0 | 0.00 | 0.00 | 0.00 | 64 | 1014.2 |
| 20260504203215 | 79 | 177 | 6.0 | 0.0 | 0.00 | 0.00 | 0.00 | 66 | 1014.2 |
| 20260504202714 | 79 | 102 | 4.0 | 0.0 | 0.00 | 0.00 | 0.00 | 64 | 1014.2 |
| 20260504202210 | 79 | 293 | 6.0 | 0.0 | 0.00 | 0.00 | 0.00 | 64 | 1014.2 |
| 20260504201714 | 79 | 301 | 7.0 | 0.0 | 0.00 | 0.00 | 0.00 | 64 | 1014.2 |
| 20260504201314 | 80 | 141 | 6.0 | 0.0 | 0.00 | 0.00 | 0.00 | 64 | 1014.6 |
| 20260504200212 | 79 | 241 | 6.0 | 0.0 | 0.00 | 0.00 | 0.00 | 65 | 1014.6 |
| 20260504195711 | 79 | 124 | 4.0 | 0.0 | 0.00 | 0.00 | 0.00 | 64 | 1014.6 |
| 20260504195213 | 79 | 41 | 6.0 | 0.0 | 0.00 | 0.00 | 0.00 | 66 | 1014.9 |
| 20260504194715 | 79 | 171 | 6.0 | 0.0 | 0.00 | 0.00 | 0.00 | 65 | 1014.9 |
| 20260504194213 | 79 | 184 | 7.0 | 0.0 | 0.00 | 0.00 | 0.00 | 63 | 1014.9 |
| 20260504193711 | 79 | 316 | 8.0 | 0.0 | 0.00 | 0.00 | 0.00 | 64 | 1014.9 |
| 20260504193211 | 80 | 102 | 7.0 | 0.0 | 0.00 | 0.00 | 0.00 | 62 | 1014.9 |
| 20260504192712 | 80 | 102 | 7.0 | 0.0 | 0.00 | 0.00 | 0.00 | 62 | 1014.9 |
| 20260504192214 | 80 | 286 | 6.0 | 0.0 | 0.00 | 0.00 | 0.00 | 64 | 1014.9 |
| 20260504191710 | 80 | 330 | 7.0 | 0.0 | 0.00 | 0.00 | 0.00 | 63 | 1014.9 |
| 20260504191212 | 80 | 120 | 5.0 | 0.0 | 0.00 | 0.00 | 0.00 | 63 | 1015.2 |
| 20260504190712 | 79 | 171 | 5.0 | 0.0 | 0.00 | 0.00 | 0.00 | 62 | 1014.9 |
| 20260504190214 | 79 | 207 | 6.0 | 0.0 | 0.00 | 0.00 | 0.00 | 65 | 1015.2 |
| 20260504185714 | 78 | 127 | 7.0 | 0.0 | 0.00 | 0.00 | 0.00 | 67 | 1015.2 |
| 20260504185213 | 78 | 51 | 6.0 | 0.0 | 0.00 | 0.00 | 0.00 | 65 | 1015.2 |
| 20260504184712 | 79 | 15 | 7.0 | 0.0 | 0.00 | 0.00 | 0.00 | 62 | 1015.2 |
| 20260504184214 | 81 | 122 | 6.0 | 0.0 | 0.00 | 0.00 | 0.00 | 62 | 1015.2 |
| 20260504183714 | 81 | 147 | 6.0 | 0.0 | 0.00 | 0.00 | 0.00 | 62 | 1015.6 |
| 20260504183213 | 81 | 113 | 7.0 | 0.0 | 0.00 | 0.00 | 0.00 | 61 | 1015.6 |
| 20260504182714 | 81 | 290 | 5.0 | 0.0 | 0.00 | 0.00 | 0.00 | 62 | 1015.6 |
| 20260504182216 | 80 | 72 | 8.0 | 0.0 | 0.00 | 0.00 | 0.00 | 64 | 1015.6 |
| 20260504181711 | 80 | 194 | 8.0 | 0.0 | 0.00 | 0.00 | 0.00 | 62 | 1015.6 |
| 20260504181214 | 79 | 205 | 7.0 | 0.0 | 0.00 | 0.00 | 0.00 | 66 | 1015.9 |
| 20260504180714 | 79 | 176 | 5.0 | 0.0 | 0.00 | 0.00 | 0.00 | 65 | 1015.9 |
| 20260504180215 | 78 | 274 | 5.0 | 0.0 | 0.00 | 0.00 | 0.00 | 65 | 1015.9 |
| 20260504175713 | 78 | 115 | 4.0 | 0.0 | 0.00 | 0.00 | 0.00 | 66 | 1015.9 |
| 20260504175215 | 79 | 208 | 7.0 | 0.0 | 0.00 | 0.00 | 0.00 | 64 | 1015.9 |
| 20260504174714 | 80 | 112 | 7.0 | 0.0 | 0.00 | 0.00 | 0.00 | 63 | 1015.9 |
| 20260504174212 | 80 | 280 | 6.0 | 0.0 | 0.00 | 0.00 | 0.00 | 64 | 1015.9 |
| 20260504173711 | 80 | 189 | 6.0 | 0.0 | 0.00 | 0.00 | 0.00 | 62 | 1016.3 |
| 20260504173214 | 80 | 84 | 9.0 | 0.0 | 0.00 | 0.00 | 0.00 | 63 | 1015.9 |
| 20260504172713 | 79 | 123 | 9.0 | 0.0 | 0.00 | 0.00 | 0.00 | 65 | 1016.3 |
| 20260504172227 | 79 | 225 | 6.0 | 0.0 | 0.00 | 0.00 | 0.00 | 65 | 1016.3 |
| 20260504171726 | 79 | 118 | 5.0 | 0.0 | 0.00 | 0.00 | 0.00 | 65 | 1016.3 |
| 20260504171226 | 78 | 71 | 6.0 | 0.0 | 0.00 | 0.00 | 0.00 | 65 | 1016.3 |
| 20260504170726 | 77 | 170 | 6.0 | 0.0 | 0.00 | 0.00 | 0.00 | 66 | 1016.3 |
| 20260504170226 | 77 | 58 | 7.0 | 0.0 | 0.00 | 0.00 | 0.00 | 66 | 1016.3 |
| 20260504160226 | 73 | 184 | 4.0 | 0.0 | 0.00 | 0.00 | 0.00 | 74 | 1016.9 |
| 20260504150728 | 67 | 95 | 4.0 | 0.0 | 0.00 | 0.00 | 0.00 | 83 | 1017.3 |
| 20260504150226 | 67 | 118 | 6.0 | 0.0 | 0.00 | 0.00 | 0.00 | 83 | 1017.3 |
| 20260504141223 | 66 | 213 | 3.0 | 0.0 | 0.00 | 0.00 | 0.00 | 84 | 1017.3 |
| 20260504140724 | 66 | 103 | 4.0 | 0.0 | 0.00 | 0.00 | 0.00 | 84 | 1017.3 |
| 20260504140223 | 65 | 114 | 4.0 | 0.0 | 0.00 | 0.00 | 0.00 | 83 | 1017.3 |
| 20260504130723 | 63 | 182 | 4.0 | 0.0 | 0.00 | 0.00 | 0.00 | 84 | 1017.3 |
| 20260504130221 | 63 | 117 | 3.0 | 0.0 | 0.00 | 0.00 | 0.00 | 84 | 1017.3 |
| 20260504110719 | 62 | 159 | 2.0 | 0.0 | 0.00 | 0.00 | 0.00 | 84 | 1016.6 |
| 20260504110218 | 62 | 141 | 3.0 | 0.0 | 0.00 | 0.00 | 0.00 | 83 | 1016.9 |
| 20260504100218 | 62 | 155 | 3.0 | 0.0 | 0.00 | 0.00 | 0.00 | 82 | 1016.9 |
| 20260504081715 | 63 | 62 | 5.0 | 0.0 | 0.00 | 0.00 | 0.00 | 79 | 1017.6 |
| 20260504081216 | 63 | 232 | 3.0 | 0.0 | 0.00 | 0.00 | 0.00 | 79 | 1017.9 |
| 20260504080714 | 63 | 119 | 4.0 | 0.0 | 0.00 | 0.00 | 0.00 | 79 | 1017.6 |
| 20260504080214 | 63 | 155 | 5.0 | 0.0 | 0.00 | 0.00 | 0.00 | 79 | 1017.9 |
| 20260504070213 | 64 | 266 | 6.0 | 0.0 | 0.00 | 0.00 | 0.00 | 76 | 1018.6 |
| 20260504060213 | 65 | 130 | 5.0 | 0.0 | 0.00 | 0.00 | 0.00 | 73 | 1019.3 |